Hundvaag 1 weather for Jan 1992
Month no. 55
Obs.
Da.
Temp. Dew Point Precip. Wind
Speed
Wind gusts Cloud cover Press. Humidity Wind dir. Sunny OPT
01.01.1992 5,0   13,5             1  
02.01.1992 8,3   13,2                
03.01.1992 6,2   9,5                
04.01.1992 5,2   7,3                
05.01.1992 -0,2   2,5             1  
06.01.1992 2,6   2,0                
07.01.1992 4,6   29,7                
08.01.1992 4,1   22,2                
09.01.1992 1,8   3,0             1  
10.01.1992 -3,1   0,0             1  
11.01.1992 7,2   6,5                
12.01.1992 3,2   4,1             1  
13.01.1992 1,9   1,6                
14.01.1992 6,4   14,0                
15.01.1992 6,1   2,2                
16.01.1992 5,8   3,1                
17.01.1992 3,0   2,1                
18.01.1992 6,9   4,6                
19.01.1992 6,1   25,5                
20.01.1992 1,0   0,2             1  
21.01.1992 1,8   0,9                
22.01.1992 0,3   0,6             1  
23.01.1992 -0,4   0,0             1  
24.01.1992 -1,2   0,0             1  
25.01.1992 3,7   0,0                
26.01.1992 3,2   14,1             1  
27.01.1992 4,3   2,7             1  
28.01.1992 3,4   1,0                
29.01.1992 2,9   1,0             1  
30.01.1992 -0,1   1,0                
31.01.1992 1,9   0,8                
Avrg/Sum 3,3   188,8             12